GSAT0203

Last updated on May 29, 2016, 1:44 a.m. UTC

1 40544U 15017A   16148.02386575 -.00000012  00000-0  00000-0 0  9991
2 40544  55.3275  82.8959 0002904 261.2025  98.7457  1.70475032  6588
UTC
Height (km)
Latitude
Longitude
Inclination
Orbital Period
UTC large
Height (km)
Speed (km/s)
/
Latitude / Longitude
Inclination (degrees)
Orbital Period (minutes)
Azimuth
Elevation
Range (km)
Doppler Factor
iOS Compass Heading
iOS Angle

Next 30 passes for location: Hong Kong

Rise time Rise Azimuth (degrees) Set time Set Azimuth (degrees) Duration Max altitude (degrees)

No matching passes for this satellites